SL-16 DEB, 22349

Orbit data source: Space-Track

SL-16 DEB, 22349 is space debris in LEO originally from a launch on Fri, 25 Dec 1992 UTC launched from the Tyuratam Missile And Space Complex (TTMTR). Debris objects in space refer to the collection of defunct objects orbiting the Earth. Examples of debris include non-operational satellites, rocket bodies, and fragments generated from explosions, collisions, or faulty payload assembly.

Loading next visibility...
Identifier
22349, 1992-093AN
Orbit
LEO
Last TLE update
14 hours ago
Origin
Manufacturer
Unknown
Mission
Spacecraft
Bus & Motor
Unknown
Mass
Unknown
Launch date (UTC)
1992-12-25 (33 years ago)
Launch vehicle
Unknown
Launch site
Tyuratam Missile And Space Complex (TTMTR)
Object type
Payload
Rocket body
Debris
Shape & HBR
Unknown
Radar Cross Section
Small (<0.1 m²)

Expand to show TLE details & history

TLE from 14 hours ago
0 SL-16 DEB
1 22349U 92093AN  25186.60807377  .00000220  00000-0  21571-3 0  9996
2 22349  70.8203 277.3122 0183926 285.9203 182.1857 13.82436964634971
Epoch: 2025-07-05T14:35Z
TLE epoch observation values (Epoch: 2025-07-05T14:35:37.573Z)
Latitude
64.01407°
Longitude
-90.67149°
Altitude
1,100.53 km
Speed
7.241 km/s
True Right ascension
03h 28m 18s
True Declination
63° 53' 05"
Sunlit
Object was in daylight at epoch
Visualization orbit readout
Latitude
9.33912°
Longitude
-49.8884°
Altitude
1,011.902 km
Speed
7.319 km/s
Apparent Right ascension
05h 36m 46s
Apparent Declination
-13° 30' 26"
Sunlit
Object is in daylight
Visualization observer readout
Local Sidereal Time
16:44:53
Azimuth
333.033° NNW
Elevation
-61.237°
Doppler factor
1
Orbital elements
Apogee altitude
1,088.072 km
Perigee altitude
818.386 km
Semi-major axis
7,331.366 km
Eccentricity
0.01839
Inclination
70.8203°
RAAN
277.3122°
Arg. of periapsis
285.9203°
True anomaly
Unknown
Mean anomaly
182.1857°
Eccentric anomaly
Unknown
Mean motion
3.45753 °/min
Orbital period
104.12 mins
BSTAR
0.00021571
Loading maneuver chart data...
Loading SW <> Apogee altitude chart data...
Loading historical data...
Loading historical data...
Loading historical data...
Loading historical data...
Loading historical data...
Loading historical data...
Loading historical data...

SL-16 DEB Visibility forecast

Observer location: undefined°, undefined°

Span
Click to sort rows by Start time (UTC) header in descending order
Start Az.
Max El. time (UTC)
Max El. Az.
Max El.
End time (UTC)
End Az.
6 mins2025-07-06 05:49:39.555Z123.992° SE2025-07-06 05:52:39.555Z94.708° ESE14.321°2025-07-06 05:55:39.555Z66.353° ENE
11 mins2025-07-06 07:33:39.555Z205.56° SW2025-07-06 07:38:39.555Z353.34° N44.357°2025-07-06 07:44:39.555Z22.145° NNE
6 mins2025-07-06 09:23:39.555Z290.737° WNW2025-07-06 09:25:39.555Z311.426° NW16.258°2025-07-06 09:29:39.555Z349.79° N
4 mins2025-07-06 14:56:39.555Z25.066° NE2025-07-06 14:58:39.555Z43.147° NE12.651°2025-07-06 15:00:39.555Z61.054° ENE
11 mins2025-07-06 16:41:39.555Z347.762° N2025-07-06 16:46:39.555Z63.978° ENE40.946°2025-07-06 16:52:39.555Z141.388° SSE
9 mins2025-07-06 18:28:39.555Z303.477° NW2025-07-06 18:32:39.555Z261.31° W22.113°2025-07-06 18:37:39.555Z211.29° SW
|